Location: Newark
(42.8481°N, 0.4872°E)
Time: 23:11:05
(UTC+00:00)

Vanguard 3 - Pass Details

Date: 28 October 2020
Orbit: 508 x 3262 km, 33.3° (Epoch: 29 November)

Event Time Altitude Azimuth Distance (km) Brightness Sun altitude
Rises 04:41:30 0° 223° (SW) 6,065 - -20.0°
Exits shadow 04:41:30 - 223° (SW) 6,064 11.2 -20.0°
Reaches altitude 10° 04:45:20 10° 217° (SW) 5,361 11.0 -19.3°
Maximum altitude 05:01:15 45° 152° (SSE) 3,936 10.8 -16.4°
Drops below altitude 10° 05:19:05 10° 88° (E) 5,983 13.0 -13.1°
Sets 05:23:37 0° 83° (E) 6,797 13.6 -12.3°
